Location: Kawakawa
(35.3830°S, 174.0670°E)
Time: 12:22:23
(UTC+13:00)

Altair - Pass Details

Date: 14 December 2019
Orbit: 1502 x 1682 km, 47.2° (Epoch: 26 January)

Event Time Altitude Azimuth Distance (km) Brightness Sun altitude
Rises 13:44:34 0° 243° (WSW) 4,875 10.1 76.5°
Reaches altitude 10° 13:47:53 10° 237° (WSW) 3,909 9.8 76.2°
Maximum altitude 13:57:36 49° 163° (SSE) 2,075 8.8 75.1°
Drops below altitude 10° 14:07:25 10° 90° (E) 3,954 9.7 73.8°
Sets 14:10:46 0° 84° (E) 4,934 10.0 73.3°
